Location: Luxembourg
(49.6117°N, 6.1300°E)
Time: 06:14:47
(UTC+02:00)

Envisat - Pass Details

Date: 24 January 2019
Orbit: 764 x 766 km, 98.1° (Epoch: 23 October)

Event Time Altitude Azimuth Distance (km) Brightness Sun altitude
Rises 19:52:43 0° 186° (S) 3,221 6.3 -24.9°
Reaches altitude 10° 19:55:10 10° 194° (SSW) 2,299 5.6 -25.3°
Maximum altitude 19:59:53 39° 263° (W) 1,143 4.3 -26.1°
Drops below altitude 10° 20:04:40 10° 332° (NNW) 2,315 5.8 -26.9°
Sets 20:07:08 0° 341° (NNW) 3,246 6.5 -27.3°
